When you browse on this site, cookies collect data to enhance your experience and personalize the content and advertising you see.
Visit our Privacy Policy to learn more. By continuing to use the site, you agree to this use of cookies and data.
  • In Romania
  • List of Countries
  • For 7 days
  • Water Temperature
  • Weather Map
  • Weather Widgets
  • user-avatar
    Login

    Hourly Weather Dumfries

    Today, 30 May, Saturday

    Time Temperature Precipitation Wind Pressure Humidity
    00:00 +15°C° 0 mm 1 mps 765 mmHg 91%
    01:00 +15°C° 0 mm 1 mps 765 mmHg 91%
    02:00 +14°C° 0 mm 1 mps 765 mmHg 92%
    03:00 +14°C° 0 mm 1 mps 765 mmHg 93%
    04:00 +14°C° 0 mm 1 mps 765 mmHg 92%
    05:00 +15°C° 0 mm 1 mps 766 mmHg 91%
    06:00 +16°C° 0 mm 1 mps 766 mmHg 89%
    07:00 +18°C° 0 mm 1 mps 766 mmHg 84%
    08:00 +19°C° 0 mm 1 mps 766 mmHg 79%
    09:00 +20°C° 0 mm 2 mps 766 mmHg 74%
    10:00 +20°C° 0 mm 2 mps 766 mmHg 71%
    11:00 +21°C° 0 mm 3 mps 766 mmHg 67%
    12:00 +21°C° 0 mm 4 mps 766 mmHg 64%
    13:00 +21°C° 0 mm 4 mps 766 mmHg 62%
    14:00 +21°C° 0 mm 4 mps 765 mmHg 61%
    15:00 +21°C° 0 mm 5 mps 765 mmHg 60%
    16:00 +20°C° 0 mm 4 mps 765 mmHg 62%
    17:00 +19°C° 0 mm 4 mps 765 mmHg 65%
    18:00 +18°C° 0 mm 4 mps 765 mmHg 68%
    19:00 +16°C° 0 mm 3 mps 765 mmHg 73%
    20:00 +13°C° 0 mm 3 mps 766 mmHg 77%
    21:00 +12°C° 0 mm 2 mps 766 mmHg 82%
    22:00 +10°C° 0 mm 2 mps 766 mmHg 85%
    23:00 +9°C° 0 mm 2 mps 766 mmHg 88%

    Tomorrow, 31 May, Sunday

    Time Temperature Precipitation Wind Pressure Humidity
    00:00 +8°C° 0 mm 2 mps 767 mmHg 91%
    01:00 +8°C° 0 mm 2 mps 767 mmHg 92%
    02:00 +8°C° 0 mm 2 mps 767 mmHg 93%
    03:00 +7°C° 0 mm 2 mps 767 mmHg 94%
    04:00 +8°C° 0 mm 2 mps 767 mmHg 92%
    05:00 +9°C° 0 mm 2 mps 767 mmHg 90%
    06:00 +10°C° 0 mm 2 mps 767 mmHg 88%
    07:00 +13°C° 0 mm 2 mps 767 mmHg 82%
    08:00 +13°C° 0 mm 3 mps 767 mmHg 77%
    09:00 +16°C° 0 mm 3 mps 767 mmHg 71%
    10:00 +17°C° 0 mm 3 mps 767 mmHg 66%
    11:00 +18°C° 0 mm 3 mps 767 mmHg 61%
    12:00 +19°C° 0 mm 4 mps 767 mmHg 56%
    13:00 +19°C° 0 mm 3 mps 767 mmHg 56%
    14:00 +20°C° 0 mm 3 mps 767 mmHg 56%
    15:00 +20°C° 0 mm 3 mps 767 mmHg 56%
    16:00 +19°C° 0 mm 3 mps 767 mmHg 60%
    17:00 +18°C° 0 mm 3 mps 767 mmHg 64%
    18:00 +18°C° 0 mm 3 mps 767 mmHg 68%
    19:00 +16°C° 0 mm 2 mps 767 mmHg 75%
    20:00 +14°C° 0 mm 2 mps 767 mmHg 82%
    21:00 +12°C° 0 mm 2 mps 767 mmHg 89%
    22:00 +11°C° 0 mm 1 mps 767 mmHg 90%
    23:00 +11°C° 0 mm 1 mps 768 mmHg 90%

    Day after tomorrow, 1 June, Monday

    Time Temperature Precipitation Wind Pressure Humidity
    00:00 +10°C° 0 mm 1 mps 768 mmHg 91%
    01:00 +10°C° 0 mm 1 mps 768 mmHg 91%
    02:00 +9°C° 0 mm 1 mps 768 mmHg 91%
    03:00 +9°C° 0 mm 1 mps 768 mmHg 91%
    04:00 +10°C° 0 mm 1 mps 768 mmHg 88%
    05:00 +11°C° 0 mm 1 mps 768 mmHg 85%
    06:00 +12°C° 0 mm 1 mps 768 mmHg 83%
    07:00 +14°C° 0 mm 1 mps 768 mmHg 77%
    08:00 +16°C° 0 mm 1 mps 768 mmHg 72%
    09:00 +19°C° 0 mm 1 mps 768 mmHg 66%
    10:00 +20°C° 0 mm 1 mps 768 mmHg 62%
    11:00 +20°C° 0 mm 2 mps 768 mmHg 58%
    12:00 +21°C° 0 mm 2 mps 768 mmHg 53%
    13:00 +21°C° 0 mm 2 mps 768 mmHg 54%
    14:00 +21°C° 0 mm 2 mps 767 mmHg 54%
    15:00 +21°C° 0 mm 2 mps 767 mmHg 54%
    16:00 +21°C° 0 mm 2 mps 767 mmHg 59%
    17:00 +20°C° 0 mm 2 mps 767 mmHg 64%
    18:00 +20°C° 0 mm 2 mps 766 mmHg 68%
    19:00 +19°C° 0 mm 1 mps 767 mmHg 73%
    20:00 +18°C° 0 mm 1 mps 767 mmHg 79%
    21:00 +15°C° 0 mm 1 mps 767 mmHg 84%
    22:00 +14°C° 0 mm 1 mps 766 mmHg 85%
    23:00 +14°C° 0 mm 1 mps 766 mmHg 87%

    2 June, Tuesday

    Time Temperature Precipitation Wind Pressure Humidity
    00:00 +12°C° 0 mm 0 mps 766 mmHg 89%
    01:00 +11°C° 0 mm 0 mps 765 mmHg 89%
    02:00 +11°C° 0 mm 0 mps 765 mmHg 90%
    03:00 +11°C° 0 mm 0 mps 765 mmHg 91%
    04:00 +12°C° 0 mm 0 mps 765 mmHg 89%
    05:00 +14°C° 0 mm 1 mps 764 mmHg 86%
    06:00 +15°C° 0 mm 1 mps 764 mmHg 84%
    07:00 +16°C° 0 mm 1 mps 764 mmHg 79%
    08:00 +18°C° 0 mm 2 mps 763 mmHg 73%
    09:00 +19°C° 0 mm 2 mps 763 mmHg 68%
    10:00 +20°C° 0.3 mm 3 mps 763 mmHg 66%
    11:00 +20°C° 0.3 mm 3 mps 762 mmHg 65%
    12:00 +21°C° 0.3 mm 4 mps 762 mmHg 64%
    13:00 +20°C° 0.4 mm 4 mps 762 mmHg 68%
    14:00 +19°C° 0.4 mm 4 mps 761 mmHg 72%
    15:00 +18°C° 0.4 mm 4 mps 761 mmHg 75%
    16:00 +17°C° 0.6 mm 3 mps 761 mmHg 80%
    17:00 +15°C° 0.6 mm 2 mps 761 mmHg 86%
    18:00 +14°C° 0.6 mm 1 mps 760 mmHg 91%
    19:00 +14°C° 0.7 mm 1 mps 760 mmHg 92%
    20:00 +13°C° 0.7 mm 1 mps 761 mmHg 93%
    21:00 +13°C° 0.7 mm 1 mps 761 mmHg 94%
    22:00 +12°C° 0.2 mm 2 mps 761 mmHg 93%
    23:00 +12°C° 0.2 mm 2 mps 761 mmHg 92%

    3 June, Wednesday

    Time Temperature Precipitation Wind Pressure Humidity
    00:00 +10°C° 0.2 mm 3 mps 761 mmHg 91%
    01:00 +10°C° 0.1 mm 3 mps 761 mmHg 90%
    02:00 +9°C° 0.1 mm 3 mps 761 mmHg 89%
    03:00 +8°C° 0.1 mm 3 mps 761 mmHg 89%
    04:00 +8°C° 0 mm 3 mps 761 mmHg 87%
    05:00 +7°C° 0 mm 4 mps 761 mmHg 85%
    06:00 +8°C° 0 mm 4 mps 761 mmHg 83%
    07:00 +8°C° 0 mm 5 mps 761 mmHg 75%
    08:00 +9°C° 0 mm 5 mps 761 mmHg 68%
    09:00 +10°C° 0 mm 6 mps 761 mmHg 60%
    10:00 +11°C° 0 mm 6 mps 761 mmHg 59%
    11:00 +11°C° 0 mm 6 mps 761 mmHg 58%
    12:00 +13°C° 0 mm 6 mps 761 mmHg 57%
    13:00 +13°C° 0 mm 6 mps 761 mmHg 57%
    14:00 +11°C° 0 mm 6 mps 761 mmHg 58%
    15:00 +12°C° 0 mm 5 mps 761 mmHg 58%
    16:00 +12°C° 0 mm 5 mps 761 mmHg 60%
    17:00 +10°C° 0 mm 5 mps 760 mmHg 61%
    18:00 +10°C° 0 mm 5 mps 760 mmHg 62%
    19:00 +10°C° 0 mm 4 mps 760 mmHg 65%
    20:00 +9°C° 0 mm 3 mps 760 mmHg 67%
    21:00 +8°C° 0 mm 2 mps 760 mmHg 70%
    22:00 +7°C° 0 mm 2 mps 760 mmHg 74%
    23:00 +6°C° 0 mm 2 mps 760 mmHg 79%

    4 June, Thursday

    Time Temperature Precipitation Wind Pressure Humidity
    00:00 +5°C° 0 mm 2 mps 759 mmHg 83%
    01:00 +6°C° 0 mm 1 mps 759 mmHg 84%
    02:00 +5°C° 0 mm 1 mps 758 mmHg 85%
    03:00 +5°C° 0 mm 1 mps 758 mmHg 85%
    04:00 +6°C° 0 mm 1 mps 757 mmHg 82%
    05:00 +7°C° 0 mm 1 mps 757 mmHg 79%
    06:00 +7°C° 0 mm 0 mps 756 mmHg 76%
    07:00 +9°C° 0 mm 1 mps 756 mmHg 70%
    08:00 +11°C° 0 mm 1 mps 755 mmHg 64%
    09:00 +12°C° 0 mm 1 mps 755 mmHg 58%
    10:00 +13°C° 0 mm 1 mps 754 mmHg 56%
    11:00 +14°C° 0 mm 2 mps 753 mmHg 53%
    12:00 +16°C° 0 mm 2 mps 753 mmHg 51%
    13:00 +16°C° 0 mm 3 mps 752 mmHg 51%
    14:00 +17°C° 0 mm 3 mps 751 mmHg 52%
    15:00 +17°C° 0 mm 4 mps 750 mmHg 52%
    16:00 +16°C° 0 mm 3 mps 749 mmHg 57%
    17:00 +16°C° 0 mm 3 mps 748 mmHg 62%
    18:00 +14°C° 0 mm 3 mps 748 mmHg 66%
    19:00 +13°C° 0 mm 3 mps 747 mmHg 71%
    20:00 +12°C° 0 mm 3 mps 747 mmHg 76%
    21:00 +12°C° 0 mm 2 mps 746 mmHg 81%
    22:00 +10°C° 0 mm 2 mps 745 mmHg 84%
    23:00 +10°C° 0 mm 2 mps 745 mmHg 88%
    Show more